Weather History for MMCZ - February, 2014

Change the Weather History Date:

Saturday, February 1, 2014

  Actual Average Record
Temperature  
Mean Temperature 71 °F -  
Max Temperature 78 °F 82 °F 87 °F (2008)
Min Temperature 64 °F 69 °F 60 °F (2009)
Cooling Degree Days 6    
Growing Degree Days 21 (Base 50)    
Moisture  
Dew Point 70 °F    
Average Humidity 92    
Maximum Humidity 100    
Minimum Humidity 74    
Precipitation  
Precipitation 2.05 in - - ()
Sea Level Pressure  
Sea Level Pressure 29.99 in    
Wind  
Wind Speed 5 mph ()    
Max Wind Speed 17 mph    
Max Gust Speed 23 mph    
Visibility 7.4 miles    
Events      
Averages and records for this station are not official NWS values.
T = Trace of Precipitation, MM = Missing Value Source: Averaged Metar Reports

Daily Weather History Graph

Daily Weather History Graph

Search for Another Location

Airport or City:

Trip Planner

Search our weather history database for the weather conditions in past years. The results will help you decide how hot, cold, wet, or windy it might be!

Date:

Astronomy

Feb. 01, 2014 Rise Set
Actual Time 6:23 AM CST 5:38 PM CST
Civil Twilight 6:00 AM CST 6:02 PM CST
Nautical Twilight 5:34 AM CST 6:28 PM CST
Astronomical Twilight 5:08 AM CST 6:54 PM CST
Moon 7:35 AM CST (2/1) 7:47 PM CST (2/1)
Length of Visible Light 12h 01m
Length of Day
11h 15m
Waxing Crescent, 5% of the Moon is Illuminated
Feb 1
Waxing Crescent
Feb 6
First Quarter
Feb 14
Full
Feb 22
Last Quarter
Mar 1
New

Hourly Weather History & Observations

Time (CST) Temp. Dew Point Humidity Pressure Visibility Wind Dir Wind Speed Gust Speed Precip Events Conditions
12:48 AM 68.0 °F 68.0 °F 100% 29.99 in 7.0 mi East 4.6 mph - N/A   Partly Cloudy
1:50 AM 68.0 °F 68.0 °F 100% 29.98 in 7.0 mi Calm Calm - N/A   Partly Cloudy
2:40 AM 64.4 °F 64.4 °F 100% 29.99 in 7.0 mi Calm Calm - N/A   Partly Cloudy
3:53 AM 66.2 °F 66.2 °F 100% 29.95 in 7.0 mi Calm Calm - N/A   Partly Cloudy
4:40 AM 64.4 °F 64.4 °F 100% 29.96 in 7.0 mi Calm Calm - N/A   Partly Cloudy
5:48 AM 64.4 °F 64.4 °F 100% 29.95 in 7.0 mi Calm Calm - N/A   Partly Cloudy
6:42 AM 66.2 °F 66.2 °F 100% 29.98 in 7.0 mi ESE 4.6 mph - N/A   Partly Cloudy
7:48 AM 69.8 °F 69.8 °F 100% 29.99 in 8.0 mi SE 3.5 mph - N/A   Mostly Cloudy
8:45 AM 77.0 °F 73.4 °F 89% 30.04 in 8.0 mi SE 8.1 mph - N/A   Mostly Cloudy
9:40 AM 78.8 °F 71.6 °F 78% 30.02 in 8.0 mi SSE 6.9 mph 18.4 mph N/A   Scattered Clouds
10:41 AM 77.0 °F 71.6 °F 83% 30.02 in 8.0 mi SE 11.5 mph 23.0 mph N/A   Scattered Clouds
11:40 AM 78.8 °F 69.8 °F 74% 29.99 in 8.0 mi SSE 15.0 mph - N/A   Scattered Clouds
12:40 PM 78.8 °F 71.6 °F 78% 29.99 in 8.0 mi SE 17.3 mph - N/A   Scattered Clouds
1:41 PM 78.8 °F 71.6 °F 78% 29.97 in 8.0 mi SE 17.3 mph - N/A   Mostly Cloudy
2:40 PM 77.0 °F 71.6 °F 83% 29.98 in 8.0 mi SE 9.2 mph - N/A   Mostly Cloudy
3:41 PM 78.8 °F 71.6 °F 78% 29.94 in 8.0 mi SE 13.8 mph - N/A   Scattered Clouds
4:42 PM 75.2 °F 71.6 °F 89% 29.95 in 8.0 mi SE 9.2 mph - N/A   Scattered Clouds
5:57 PM 73.4 °F 71.6 °F 94% 29.95 in 7.0 mi ESE 6.9 mph - N/A   Scattered Clouds
7:42 PM 73.4 °F 71.6 °F 94% 29.99 in 7.0 mi ESE 6.9 mph - N/A   Scattered Clouds
8:43 PM 71.6 °F 71.6 °F 100% 30.03 in 7.0 mi SE 5.8 mph - N/A   Mostly Cloudy
9:43 PM 71.6 °F 71.6 °F 100% 30.01 in 7.0 mi ESE 5.8 mph - N/A   Scattered Clouds
10:42 PM 69.8 °F 69.8 °F 100% 30.01 in 7.0 mi ESE 6.9 mph - N/A   Scattered Clouds
11:48 PM 69.8 °F 69.8 °F 100% 29.98 in 7.0 mi ESE 3.5 mph - N/A   Mostly Cloudy